Regional Weather Roundup
Issued by NWS Little Rock, AR

Home | Current Version | Previous Version | Graphics & Text | Print | Product List | Glossary On
Versions: 1 2 3 4 5 6 7 8 9 10 11 12 13 14 15 16 17 18 19 20 21 22 23 24 25 26 27 28 29 30 31 32 33 34 35 36 37 38 39 40 41 42 43 44 45 46 47 48 49 50
581
ASUS44 KLZK 191205
RWRLZK

WEATHER ROUNDUP FOR ARKANSAS
NATIONAL WEATHER SERVICE LITTLE ROCK AR
600 AM CST SUN NOV 19 2017

NOTE: "FAIR" INDICATES FEW OR NO CLOUDS BELOW 12,000 FEET WITH NO
SIGNIFICANT WEATHER AND/OR OBSTRUCTIONS TO VISIBILITY.

ARZ001-003-010-029-191300-
NORTHWEST ARKANSAS

CITY           SKY/WX    TMP DP  RH WIND       PRES   REMARKS
FAYETTEVILLE   CLEAR     27  27 100 S3        30.26R
6HR MIN TEMP:  27; 6HR MAX TEMP:  41;

FORT SMITH     CLEAR     36  32  85 W9        30.29R
6HR MIN TEMP:  34; 6HR MAX TEMP:  39;

HARRISON       CLEAR     33  27  78 NW5       30.23R WCI  29
6HR MIN TEMP:  33; 6HR MAX TEMP:  40;

BENTONVILLE    CLEAR     32  28  85 CALM      30.29R
6HR MIN TEMP:  32; 6HR MAX TEMP:  41;

ROGERS         CLEAR     33  28  81 NW3       30.27R
6HR MIN TEMP:  33; 6HR MAX TEMP:  39;

SILOAM SPGS    CLEAR     32  28  85 NW3       30.28R
6HR MIN TEMP:  31; 6HR MAX TEMP:  38;

HIGHFILL       CLEAR     34  28  79 NW6       30.27R WCI  29
6HR MIN TEMP:  34; 6HR MAX TEMP:  40;

SPRINGDALE     CLEAR     32  28  86 CALM      30.28
$$

ARZ004-005-016-191300-
NORTH CENTRAL ARKANSAS

CITY           SKY/WX    TMP DP  RH WIND       PRES   REMARKS
BATESVILLE     PTCLDY    40  25  55 NW7       30.23R
6HR MIN TEMP:  40; 6HR MAX TEMP:  46;

FLIPPIN        CLEAR     38  26  62 NW7       30.25R
6HR MIN TEMP:  38; 6HR MAX TEMP:  45;

$$

ARZ040-041-191300-
WEST CENTRAL ARKANSAS

CITY           SKY/WX    TMP DP  RH WIND       PRES   REMARKS
MENA           CLEAR     41  32  70 NW3       30.27R
MOUNT IDA      PTCLDY    31  30  96 NW3       30.23R
6HR MIN TEMP:  31; 6HR MAX TEMP:  40;

$$

ARZ009-017-025-026-028-191300-
NORTHEAST ARKANSAS

CITY           SKY/WX    TMP DP  RH WIND       PRES   REMARKS
CORNING        FAIR      39  28  65 NW12      30.20
JONESBORO      CLEAR     39  29  67 NW8       30.19R
6HR MIN TEMP:  39; 6HR MAX TEMP:  45;

NEWPORT        CLEAR     38  26  62 NW12      30.22R
6HR MIN TEMP:  37; 6HR MAX TEMP:  44;

BLYTHEVILLE    CLEAR     37  31  78 N10       30.18R
6HR MIN TEMP:  36; 6HR MAX TEMP:  42;

$$

ARZ022-023-033-042-044-191300-
CENTRAL ARKANSAS

CITY           SKY/WX    TMP DP  RH WIND       PRES   REMARKS
LITTLE ROCK    PTCLDY    38  34  85 NW5       30.25R
6HR MIN TEMP:  34; 6HR MAX TEMP:  43;

N LITTLE ROCK    N/A     40  33  74 NW5       30.26R
6HR MIN TEMP:  40; 6HR MAX TEMP:  44;

JACKSONVILLE   PTCLDY    33  29  86 W7        30.23R WCI  27
6HR MIN TEMP:  32; 6HR MAX TEMP:  39;

SEARCY         PTCLDY    38  31  76 NW3       30.24R
6HR MIN TEMP:  34; 6HR MAX TEMP:  47;

HOT SPRINGS    CLEAR     36  34  92 NW6       30.26R
6HR MIN TEMP:  34; 6HR MAX TEMP:  47;

RUSSELLVILLE   PTCLDY    32  31  96 CALM      30.25R
6HR MIN TEMP:  31; 6HR MAX TEMP:  37;

CLINTON        FAIR      36  30  80 CALM      30.25R
$$

ARZ036-191300-
EAST ARKANSAS

CITY           SKY/WX    TMP DP  RH WIND       PRES   REMARKS
WEST MEMPHIS   PTCLDY    39  33  79 VRB5      30.18R
6HR MIN TEMP:  38; 6HR MAX TEMP:  43;

$$

ARZ050-053-066-070-073-191300-
SOUTHWEST ARKANSAS

CITY           SKY/WX    TMP DP  RH WIND       PRES   REMARKS
ARKADELPHIA    FAIR      32  31  96 CALM      30.27R
6HR MIN TEMP:  31; 6HR MAX TEMP:  38;

CAMDEN         CLEAR     32  30  93 CALM      30.26R
TEXARKANA      CLEAR     39  34  82 NW7       30.27R
6HR MIN TEMP:  39; 6HR MAX TEMP:  44;

EL DORADO      CLEAR     38  35  89 NW5       30.26R
6HR MIN TEMP:  38; 6HR MAX TEMP:  45;

DE QUEEN       FOG       29  29 100 E3        30.28R VSB 1/4
6HR MIN TEMP:  29; 6HR MAX TEMP:  36; 6HR PCP: TRACE;

$$

ARZ056-057-069-191300-
SOUTHEAST ARKANSAS

CITY           SKY/WX    TMP DP  RH WIND       PRES   REMARKS
PINE BLUFF     PTCLDY    38  31  76 W6        30.24R
6HR MIN TEMP:  37; 6HR MAX TEMP:  46;

STUTTGART      PTCLDY    39  34  82 NW9       30.23R
6HR MIN TEMP:  39; 6HR MAX TEMP:  45;

MONTICELLO     CLEAR     41  32  70 NW6       30.23R
6HR MIN TEMP:  41; 6HR MAX TEMP:  47;


$$






USA.gov is the U.S. government's official web portal to all federal, state and local government web resources and services.